Time,HIH7120,SHT85,AHT10,AHT10,AHT10,AHT10,AHT10,AHT10,AHT10,AHT10,AHT20,AHT20,AHT20,AHT20,AHT20,AHT20,AHT20,AHT20,AHT21,AHT21,AHT21,AHT21,AHT21,AHT21,AHT21,AHT21,AHT25,AHT25,AHT25,AHT25,AHT25,AHT25,AHT25,AHT25
00:29:44,25.10,25.09,25.16,24.83,24.83,24.91,24.87,24.94,24.98,24.91,24.45,24.60,24.47,24.58,24.47,24.48,24.43,24.54,24.50,24.83,24.48,24.90,24.43,24.31,24.72,24.59,25.08,25.00,25.03,25.09,25.01,24.95,25.56,25.09,
00:29:58,25.12,25.07,25.16,24.84,24.83,24.91,24.87,24.94,24.99,24.92,24.44,24.64,24.47,24.57,24.51,24.48,24.42,24.51,24.52,24.83,24.49,24.92,24.44,24.29,24.75,24.59,25.09,25.00,25.03,25.09,25.01,24.96,25.79,25.11,
00:30:12,25.12,25.07,25.17,24.84,24.83,24.92,24.88,24.95,24.99,24.92,24.48,24.59,24.48,24.59,24.48,24.49,24.44,24.51,24.51,24.82,24.50,24.91,24.44,24.29,24.74,24.61,25.10,25.02,25.06,25.10,25.02,24.97,25.91,25.12,
00:30:26,25.13,25.09,25.17,24.85,24.84,24.92,24.88,24.95,24.99,24.93,24.46,24.60,24.49,24.56,24.49,24.49,24.43,24.53,24.51,24.82,24.49,24.91,24.45,24.31,24.74,24.59,25.09,25.02,25.06,25.11,25.04,24.97,26.00,25.13,
00:30:39,25.12,25.07,25.17,24.85,24.84,24.92,24.89,24.95,25.00,24.93,24.47,24.60,24.48,24.58,24.50,24.50,24.43,24.51,24.53,24.85,24.49,24.93,24.46,24.32,24.75,24.60,25.11,25.02,25.07,25.11,25.06,24.99,26.05,25.16,
00:30:53,25.13,25.10,25.17,24.86,24.84,24.93,24.89,24.96,25.00,24.93,24.49,24.60,24.50,24.59,24.51,24.49,24.46,24.53,24.53,24.85,24.49,24.91,24.45,24.32,24.75,24.60,25.10,25.03,25.09,25.13,25.07,25.00,26.08,25.18,
00:31:07,25.14,25.12,25.18,24.86,24.85,24.93,24.89,24.96,25.00,24.94,24.49,24.62,24.49,24.58,24.52,24.51,24.44,24.55,24.53,24.87,24.51,24.92,24.47,24.33,24.76,24.61,25.12,25.04,25.10,25.13,25.09,25.01,26.14,25.20,
00:31:21,25.14,25.13,25.19,24.87,24.86,24.94,24.90,24.97,25.01,24.94,24.49,24.64,24.50,24.59,24.53,24.52,24.43,24.52,24.53,24.86,24.52,24.92,24.47,24.33,24.76,24.61,25.12,25.06,25.09,25.16,25.11,25.01,26.15,25.21,
00:31:34,25.14,25.13,25.19,24.88,24.86,24.94,24.91,24.97,25.02,24.95,24.51,24.66,24.53,24.61,24.55,24.53,24.46,24.59,24.55,24.87,24.53,24.95,24.50,24.38,24.79,24.64,25.17,25.12,25.18,25.26,25.24,25.14,26.28,25.36,
00:31:48,25.28,25.30,25.28,24.97,24.97,25.05,25.04,25.10,25.13,25.05,24.64,24.75,24.63,24.74,24.66,24.67,24.61,24.69,24.70,25.01,24.68,25.07,24.65,24.50,24.91,24.75,25.35,25.28,25.54,25.37,25.27,25.20,26.02,25.41,
00:32:02,25.33,25.33,25.36,25.04,25.03,25.10,25.09,25.16,25.20,25.11,24.69,24.74,24.70,24.79,24.73,24.74,24.66,24.68,24.74,25.05,24.71,25.11,24.68,24.54,24.96,24.81,25.38,25.30,25.43,25.38,25.29,25.22,25.97,25.43,
00:32:16,25.37,25.34,25.41,25.10,25.07,25.14,25.13,25.19,25.24,25.15,24.72,24.79,24.72,24.85,24.72,24.76,24.67,24.72,24.77,25.10,24.73,25.14,24.69,24.55,24.97,24.81,25.37,25.28,25.41,25.40,25.31,25.24,25.99,25.43,
00:32:30,25.37,25.36,25.43,25.12,25.10,25.16,25.14,25.20,25.27,25.17,24.72,24.81,24.74,24.85,24.77,24.78,24.67,24.78,24.79,25.11,24.75,25.14,24.70,24.55,24.99,24.82,25.38,25.30,25.42,25.41,25.33,25.23,26.13,25.41,
00:32:43,25.39,25.31,25.43,25.13,25.10,25.16,25.14,25.20,25.27,25.18,24.74,24.81,24.76,24.84,24.74,24.78,24.69,24.75,24.80,25.12,24.75,25.17,24.69,24.55,25.00,24.82,25.35,25.26,25.41,25.39,25.33,25.22,26.21,25.41,
00:32:57,25.39,25.30,25.43,25.13,25.10,25.17,25.14,25.20,25.26,25.19,24.75,24.81,24.75,24.87,24.76,24.78,24.73,24.78,24.80,25.11,24.75,25.16,24.69,24.54,25.00,24.83,25.33,25.26,25.40,25.39,25.34,25.23,26.28,25.42,
00:33:11,25.39,25.27,25.43,25.13,25.10,25.17,25.14,25.20,25.27,25.19,24.74,24.80,24.73,24.87,24.78,24.76,24.72,24.76,24.81,25.13,24.75,25.18,24.71,24.55,25.00,24.85,25.33,25.29,25.41,25.39,25.36,25.23,26.33,25.45,
00:33:25,25.41,25.27,25.44,25.14,25.11,25.17,25.15,25.20,25.28,25.20,24.75,24.85,24.76,24.89,24.78,24.80,24.70,24.74,24.82,25.14,24.77,25.17,24.73,24.56,25.00,24.83,25.35,25.30,25.42,25.41,25.36,25.26,26.16,25.46,
00:33:39,25.41,25.31,25.46,25.16,25.12,25.18,25.16,25.22,25.29,25.21,24.76,24.85,24.77,24.90,24.78,24.82,24.73,24.81,24.83,25.16,24.80,25.21,24.74,24.58,25.02,24.85,25.38,25.31,25.45,25.43,25.39,25.28,26.10,25.48,
00:33:52,25.43,25.36,25.48,25.18,25.14,25.20,25.18,25.23,25.31,25.22,24.75,24.85,24.80,24.90,24.82,24.84,24.77,24.80,24.84,25.16,24.80,25.20,24.75,24.61,25.04,24.86,25.39,25.33,25.44,25.44,25.38,25.31,26.06,25.48,
00:34:06,25.46,25.36,25.49,25.19,25.16,25.21,25.20,25.25,25.32,25.23,24.80,24.86,24.81,24.93,24.81,24.84,24.76,24.84,24.87,25.19,24.81,25.22,24.75,24.60,25.05,24.89,25.38,25.32,25.45,25.45,25.42,25.30,26.15,25.47,
00:34:20,25.46,25.34,25.50,25.20,25.16,25.22,25.20,25.26,25.33,25.24,24.79,24.88,24.82,24.97,24.82,24.86,24.79,24.85,24.90,25.20,24.84,25.23,24.78,24.62,25.05,24.88,25.40,25.35,25.49,25.47,25.45,25.31,26.25,25.51,
00:34:34,25.47,25.38,25.51,25.21,25.17,25.22,25.21,25.26,25.34,25.25,24.80,24.88,24.82,24.95,24.86,24.87,24.79,24.83,24.89,25.20,24.82,25.23,24.78,24.60,25.06,24.89,25.40,25.35,25.50,25.45,25.46,25.32,26.32,25.52,
00:34:48,25.47,25.41,25.51,25.20,25.17,25.22,25.21,25.26,25.34,25.24,24.79,24.87,24.81,24.96,24.84,24.86,24.79,24.80,24.90,25.21,24.83,25.23,24.77,24.60,25.07,24.90,25.39,25.35,25.48,25.45,25.47,25.31,26.38,25.52,
00:35:01,25.47,25.38,25.51,25.21,25.17,25.23,25.20,25.26,25.33,25.24,24.79,24.84,24.81,24.94,24.83,24.85,24.79,24.87,24.87,25.19,24.82,25.21,24.77,24.61,25.05,24.88,25.38,25.33,25.48,25.43,25.45,25.29,26.38,25.50,
00:35:15,25.44,25.33,25.51,25.20,25.16,25.22,25.20,25.25,25.33,25.24,24.77,24.86,24.82,24.94,24.85,24.84,24.79,24.84,24.87,25.20,24.82,25.21,24.77,24.61,25.05,24.88,25.39,25.32,25.46,25.41,25.47,25.29,26.42,25.51,
00:35:29,25.46,25.31,25.51,25.20,25.17,25.22,25.20,25.25,25.32,25.23,24.78,24.85,24.81,24.94,24.85,24.84,24.80,24.81,24.88,25.22,24.84,25.22,24.77,24.60,25.05,24.90,25.36,25.33,25.47,25.43,25.48,25.30,26.45,25.52,
00:35:43,25.44,25.33,25.50,25.20,25.17,25.22,25.19,25.25,25.32,25.23,24.78,24.86,24.84,24.93,24.85,24.84,24.79,24.81,24.90,25.21,24.83,25.21,24.76,24.61,25.05,24.90,25.36,25.32,25.48,25.44,25.49,25.30,26.47,25.52,
00:35:57,25.44,25.30,25.50,25.19,25.16,25.21,25.19,25.24,25.31,25.22,24.78,24.83,24.82,24.93,24.83,24.83,24.79,24.82,24.89,25.20,24.83,25.22,24.75,24.58,25.06,24.89,25.35,25.30,25.46,25.41,25.47,25.28,26.44,25.49,
00:36:10,25.43,25.31,25.50,25.19,25.16,25.22,25.18,25.23,25.31,25.21,24.77,24.85,24.82,24.91,24.81,24.83,24.76,24.82,24.88,25.18,24.83,25.21,24.74,24.59,25.03,24.88,25.34,25.29,25.46,25.40,25.49,25.28,26.45,25.49,
00:36:24,25.43,25.29,25.50,25.18,25.15,25.21,25.17,25.23,25.29,25.20,24.78,24.83,24.82,24.93,24.84,24.81,24.78,24.80,24.89,25.19,24.83,25.22,24.75,24.58,25.05,24.88,25.34,25.30,25.45,25.40,25.48,25.28,26.45,25.47,
00:36:38,25.43,25.27,25.50,25.17,25.15,25.21,25.17,25.23,25.29,25.20,24.76,24.83,24.81,24.91,24.82,24.80,24.79,24.87,24.86,25.17,24.83,25.21,24.76,24.56,25.04,24.88,25.32,25.31,25.45,25.36,25.49,25.24,26.46,25.47,
00:36:52,25.41,25.26,25.49,25.16,25.15,25.20,25.17,25.22,25.29,25.19,24.75,24.83,24.83,24.91,24.83,24.82,24.80,24.79,24.88,25.17,24.83,25.20,24.75,24.57,25.05,24.87,25.33,25.28,25.43,25.37,25.50,25.26,26.46,25.48,
00:37:06,25.41,25.26,25.49,25.15,25.14,25.20,25.16,25.21,25.28,25.18,24.77,24.85,24.81,24.92,24.83,24.81,24.77,24.79,24.85,25.15,24.84,25.20,24.77,24.58,25.05,24.88,25.33,25.31,25.46,25.36,25.51,25.25,26.45,25.47,
00:37:19,25.41,25.24,25.49,25.15,25.14,25.20,25.16,25.21,25.27,25.18,24.76,24.84,24.82,24.90,24.80,24.82,24.78,24.80,24.87,25.17,24.82,25.19,24.76,24.58,25.04,24.85,25.33,25.29,25.46,25.35,25.50,25.25,26.46,25.47,
00:37:33,25.40,25.26,25.48,25.15,25.14,25.19,25.16,25.21,25.27,25.17,24.75,24.83,24.81,24.89,24.81,24.80,24.76,24.83,24.87,25.15,24.82,25.21,24.74,24.57,25.03,24.88,25.33,25.30,25.45,25.35,25.50,25.24,26.46,25.47,
00:37:47,25.39,25.24,25.48,25.13,25.13,25.19,25.14,25.20,25.25,25.16,24.77,24.81,24.82,24.88,24.83,24.79,24.76,24.80,24.86,25.14,24.82,25.21,24.75,24.58,25.02,24.86,25.31,25.28,25.45,25.35,25.53,25.25,26.45,25.46,
00:38:01,25.39,25.24,25.48,25.13,25.13,25.18,25.14,25.20,25.25,25.15,24.73,24.82,24.80,24.87,24.82,24.78,24.80,24.78,24.84,25.15,24.81,25.18,24.75,24.56,25.04,24.87,25.33,25.28,25.43,25.34,25.52,25.23,26.45,25.46,
00:38:14,25.39,25.24,25.48,25.12,25.13,25.18,25.14,25.19,25.24,25.15,24.74,24.82,24.80,24.88,24.79,24.80,24.77,24.83,24.87,25.14,24.83,25.20,24.73,24.57,25.02,24.88,25.32,25.31,25.44,25.34,25.51,25.23,26.45,25.46,
00:38:28,25.37,25.26,25.47,25.12,25.13,25.17,25.13,25.19,25.24,25.14,24.73,24.85,24.80,24.87,24.80,24.78,24.77,24.72,24.84,25.13,24.81,25.19,24.74,24.56,25.05,24.86,25.32,25.30,25.43,25.33,25.50,25.22,26.45,25.44,
00:38:42,25.36,25.24,25.47,25.11,25.12,25.17,25.13,25.18,25.24,25.13,24.74,24.82,24.80,24.87,24.77,24.77,24.77,24.79,24.84,25.13,24.82,25.18,24.74,24.56,25.03,24.86,25.33,25.30,25.43,25.34,25.48,25.23,26.42,25.45,
00:38:56,25.39,25.23,25.46,25.10,25.12,25.17,25.13,25.18,25.23,25.14,24.74,24.82,24.79,24.84,24.77,24.75,24.75,24.78,24.84,25.11,24.82,25.17,24.73,24.56,25.02,24.87,25.32,25.29,25.43,25.33,25.46,25.22,26.44,25.44,
00:39:10,25.36,25.22,25.45,25.09,25.12,25.17,25.13,25.17,25.23,25.13,24.72,24.80,24.80,24.85,24.78,24.76,24.74,24.78,24.84,25.11,24.80,25.18,24.73,24.56,25.02,24.86,25.33,25.29,25.43,25.31,25.44,25.22,26.44,25.45,
00:39:23,25.35,25.23,25.45,25.09,25.11,25.16,25.12,25.17,25.22,25.13,24.72,24.79,24.79,24.83,24.76,24.74,24.75,24.75,24.82,25.11,24.81,25.18,24.73,24.55,25.01,24.85,25.31,25.30,25.42,25.32,25.42,25.21,26.44,25.45,
00:39:37,25.35,25.20,25.44,25.08,25.11,25.16,25.12,25.16,25.22,25.12,24.72,24.81,24.79,24.84,24.77,24.73,24.73,24.78,24.84,25.11,24.81,25.16,24.73,24.54,25.01,24.85,25.29,25.28,25.43,25.31,25.45,25.22,26.41,25.42,
00:39:51,25.35,25.22,25.44,25.07,25.11,25.15,25.12,25.16,25.22,25.12,24.74,24.80,24.77,24.82,24.78,24.71,24.74,24.75,24.84,25.09,24.81,25.17,24.72,24.55,25.02,24.86,25.31,25.27,25.43,25.30,25.42,25.21,26.44,25.44,
00:40:05,25.32,25.19,25.44,25.06,25.10,25.15,25.11,25.15,25.21,25.12,24.71,24.77,24.76,24.83,24.77,24.72,24.74,24.78,24.80,25.08,24.80,25.16,24.72,24.54,25.01,24.83,25.28,25.29,25.42,25.30,25.42,25.19,26.40,25.43,
00:40:19,25.31,25.20,25.43,25.05,25.10,25.14,25.10,25.14,25.21,25.11,24.71,24.79,24.78,24.81,24.76,24.72,24.72,24.75,24.81,25.06,24.79,25.17,24.72,24.55,25.01,24.84,25.29,25.28,25.40,25.29,25.42,25.18,26.42,25.42,
00:40:32,25.31,25.16,25.42,25.04,25.09,25.13,25.10,25.14,25.21,25.11,24.71,24.75,24.78,24.82,24.74,24.69,24.73,24.68,24.80,25.06,24.81,25.17,24.71,24.52,25.00,24.84,25.28,25.27,25.39,25.27,25.41,25.16,26.42,25.43,
00:40:46,25.31,25.14,25.41,25.02,25.09,25.13,25.09,25.13,25.20,25.10,24.69,24.80,24.76,24.79,24.76,24.68,24.69,24.76,24.79,25.05,24.79,25.16,24.70,24.52,24.99,24.83,25.28,25.28,25.40,25.25,25.40,25.17,26.41,25.39,
00:41:00,25.29,25.14,25.40,25.01,25.08,25.13,25.09,25.13,25.20,25.10,24.71,24.83,24.74,24.78,24.75,24.68,24.69,24.72,24.79,25.05,24.78,25.15,24.69,24.52,25.00,24.83,25.27,25.26,25.40,25.24,25.38,25.15,26.40,25.36,
00:41:14,25.27,25.13,25.39,24.99,25.08,25.13,25.09,25.13,25.19,25.09,24.71,24.75,24.74,24.79,24.75,24.65,24.70,24.72,24.77,25.03,24.78,25.15,24.68,24.51,24.98,24.82,25.26,25.25,25.36,25.23,25.36,25.14,26.38,25.37,
00:41:28,25.27,25.09,25.38,24.98,25.08,25.12,25.08,25.12,25.18,25.08,24.70,24.77,24.74,24.74,24.70,24.63,24.69,24.71,24.75,25.01,24.77,25.16,24.68,24.51,24.98,24.84,25.26,25.25,25.39,25.21,25.36,25.16,26.39,25.36,
00:41:41,25.25,25.12,25.37,24.97,25.07,25.11,25.07,25.11,25.18,25.07,24.69,24.81,24.70,24.71,24.72,24.63,24.67,24.68,24.75,25.02,24.79,25.14,24.68,24.50,24.97,24.82,25.25,25.26,25.37,25.23,25.37,25.13,26.40,25.37,
00:41:55,25.25,25.12,25.36,24.96,25.06,25.11,25.07,25.11,25.17,25.06,24.70,24.77,24.71,24.71,24.72,24.63,24.67,24.68,24.75,25.01,24.78,25.13,24.66,24.51,24.97,24.81,25.25,25.24,25.38,25.23,25.36,25.14,26.36,25.35,
00:42:09,25.25,25.09,25.36,24.95,25.06,25.11,25.06,25.10,25.16,25.06,24.70,24.78,24.71,24.71,24.70,24.62,24.65,24.66,24.74,24.99,24.77,25.13,24.67,24.51,24.97,24.81,25.25,25.25,25.35,25.22,25.35,25.12,26.37,25.35,
00:42:23,25.22,25.10,25.35,24.94,25.06,25.11,25.06,25.10,25.16,25.05,24.70,24.77,24.71,24.71,24.67,24.61,24.67,24.68,24.74,24.99,24.77,25.16,24.69,24.52,24.97,24.81,25.26,25.24,25.38,25.23,25.37,25.12,26.37,25.36,
00:42:37,25.24,25.12,25.35,24.96,25.06,25.11,25.06,25.11,25.17,25.07,24.69,24.72,24.72,24.73,24.69,24.64,24.65,24.68,24.75,25.01,24.77,25.13,24.69,24.51,24.99,24.81,25.27,25.25,25.39,25.27,25.39,25.14,26.28,25.36,
00:42:50,25.28,25.16,25.37,24.98,25.07,25.11,25.09,25.13,25.20,25.10,24.68,24.78,24.71,24.73,24.71,24.64,24.64,24.67,24.73,24.99,24.71,25.06,24.62,24.45,24.96,24.80,25.03,24.99,25.23,25.03,25.12,24.86,25.69,24.92,
00:43:04,24.98,24.63,25.28,24.91,24.99,25.02,24.96,25.00,25.16,25.06,24.43,24.47,24.58,24.62,24.43,24.32,24.39,24.33,24.41,24.71,24.26,24.68,24.01,24.00,24.80,24.65,23.77,23.56,24.35,23.98,24.06,23.74,23.98,23.53,
00:43:18,24.40,22.95,24.91,24.61,24.74,24.80,24.63,24.74,25.07,24.93,24.07,24.22,24.49,24.45,24.16,23.88,24.09,23.92,24.14,24.32,23.99,24.42,23.73,23.83,24.66,24.50,23.17,22.94,23.86,23.30,23.50,23.14,23.34,22.90,
00:43:32,23.83,21.91,24.57,24.21,24.34,24.42,24.07,24.29,24.79,24.71,23.60,23.70,24.28,24.09,23.74,23.24,23.63,23.16,23.72,23.65,23.49,23.96,22.95,23.36,24.16,24.25,22.27,21.81,22.97,22.00,22.91,22.09,23.05,22.10,
00:43:46,22.82,20.57,24.03,23.62,23.70,23.95,23.37,23.86,24.48,24.47,22.97,23.06,24.09,23.67,23.37,22.52,23.04,22.30,23.33,23.07,23.05,23.49,22.44,22.97,23.88,23.93,21.50,21.53,22.73,21.67,22.48,21.64,22.09,21.54,
00:43:59,22.89,20.64,23.85,23.31,23.53,23.82,23.27,23.73,24.33,24.27,22.72,22.95,23.91,23.32,23.18,22.29,22.86,22.07,23.21,22.59,22.90,23.35,22.37,22.91,23.68,23.74,21.62,21.80,22.63,21.41,22.26,21.25,21.79,20.99,
00:44:13,22.82,20.47,23.63,23.06,23.26,23.61,23.03,23.44,24.17,24.08,22.31,22.55,23.69,22.92,22.88,21.75,22.60,21.46,22.98,22.09,22.71,23.16,22.10,22.64,23.47,23.53,21.43,21.64,22.32,21.05,21.81,20.80,21.13,20.55,
00:44:27,22.52,20.13,23.43,22.77,23.02,23.40,22.76,23.19,23.96,23.85,22.03,22.27,23.46,22.58,22.67,21.47,22.37,21.20,22.81,21.61,22.56,22.94,21.80,22.39,23.27,23.33,21.11,21.48,22.14,20.68,21.44,20.45,20.74,20.28,
00:44:41,22.21,19.79,23.25,22.55,22.70,23.19,22.43,22.94,23.72,23.62,21.69,21.94,23.21,22.30,22.45,21.28,22.19,20.99,22.56,21.15,22.32,22.64,21.46,22.15,23.04,23.11,20.81,21.30,21.98,20.37,21.15,20.12,20.44,19.96,
00:44:54,21.78,19.45,23.01,22.28,22.52,22.92,22.27,22.67,23.51,23.38,21.55,21.58,22.89,21.96,22.08,20.90,21.84,20.67,22.13,20.91,22.06,22.14,21.52,21.84,22.87,22.79,20.40,20.64,21.60,20.14,20.99,19.92,20.70,19.76,
00:45:08,21.41,19.49,22.66,21.97,22.47,22.55,22.30,22.43,23.28,23.04,21.48,21.42,22.57,21.71,21.80,20.76,21.61,20.55,21.83,20.83,21.98,21.78,21.61,21.56,22.69,22.43,20.41,20.76,21.57,20.19,21.15,19.97,21.10,19.90,
00:45:22,21.34,19.80,22.45,21.79,22.38,22.24,22.25,22.18,23.06,22.74,21.37,21.16,22.32,21.51,21.63,20.70,21.45,20.55,21.56,20.81,21.87,21.45,21.60,21.28,22.51,22.11,20.28,20.77,21.40,20.16,21.09,19.96,21.23,19.93,
00:45:36,21.19,19.96,22.24,21.65,22.25,21.96,22.14,21.97,22.86,22.47,21.23,20.93,22.09,21.42,21.42,20.63,21.35,20.59,21.32,20.79,21.72,21.11,21.52,20.99,22.33,21.80,20.13,20.69,21.29,20.17,20.98,19.94,21.26,19.96,
00:45:50,21.09,20.03,22.07,21.55,22.10,21.68,22.01,21.73,22.65,22.20,21.11,20.68,21.89,21.31,21.26,20.63,21.16,20.56,21.11,20.78,21.54,20.81,21.40,20.72,22.12,21.48,20.00,20.57,21.11,20.13,20.89,19.92,21.21,19.94,
00:46:03,20.98,19.96,21.91,21.44,21.96,21.41,21.88,21.50,22.47,21.95,20.95,20.43,21.69,21.23,21.06,20.55,21.00,20.56,20.92,20.74,21.37,20.50,21.24,20.44,21.95,21.21,19.81,20.35,20.93,20.03,20.74,19.84,21.09,19.84,
00:46:17,20.78,19.86,21.75,21.35,21.81,21.15,21.76,21.26,22.29,21.72,20.80,20.21,21.48,21.13,20.89,20.52,20.87,20.48,20.74,20.70,21.19,20.26,21.11,20.20,21.77,20.95,19.65,20.25,20.82,20.03,20.64,19.81,21.04,19.79,
00:46:31,20.74,19.75,21.61,21.26,21.65,20.92,21.62,21.05,22.12,21.50,20.53,19.96,21.35,21.04,20.76,20.38,20.74,20.47,20.58,20.65,21.02,20.05,20.92,19.97,21.58,20.70,19.52,20.11,20.68,19.96,20.49,19.73,20.95,19.74,
00:46:45,20.63,19.61,21.49,21.17,21.49,20.70,21.48,20.83,21.93,21.28,20.44,19.77,21.20,20.96,20.64,20.34,20.63,20.43,20.40,20.57,20.81,19.89,20.75,19.75,21.40,20.47,19.40,19.95,20.47,19.78,20.28,19.59,20.82,19.63,
00:46:59,20.47,19.47,21.32,21.07,21.30,20.45,21.29,20.59,21.73,21.06,20.25,19.56,21.06,20.85,20.50,20.23,20.49,20.34,20.21,20.47,20.62,19.65,20.52,19.48,21.16,20.19,19.20,19.78,20.21,19.57,20.08,19.43,20.64,19.49,
00:47:12,20.31,19.21,21.12,20.95,21.07,20.18,21.07,20.31,21.52,20.81,20.05,19.31,20.86,20.75,20.30,20.15,20.33,20.24,20.00,20.34,20.42,19.37,20.34,19.18,20.97,19.90,19.06,19.65,20.09,19.50,19.98,19.36,20.55,19.39,
00:47:26,20.25,19.04,20.97,20.83,20.89,19.96,20.89,20.10,21.31,20.59,19.87,19.08,20.74,20.63,20.15,20.09,20.25,20.18,19.91,20.27,20.29,19.24,20.21,19.02,20.80,19.72,18.95,19.57,20.08,19.52,19.93,19.35,20.52,19.41,
00:47:40,20.25,19.04,20.88,20.75,20.74,19.80,20.78,19.95,21.16,20.42,19.74,18.97,20.62,20.56,20.09,20.03,20.16,20.13,19.83,20.18,20.15,19.07,20.11,18.92,20.64,19.55,18.90,19.50,20.01,19.50,19.85,19.29,20.40,19.32,
00:47:54,20.13,18.93,20.75,20.65,20.57,19.62,20.62,19.78,21.00,20.25,19.55,18.75,20.46,20.45,19.93,19.91,19.98,20.02,19.68,20.11,19.92,18.90,19.83,18.66,20.45,19.34,18.76,19.35,19.86,19.37,19.69,19.19,20.31,19.25,
00:48:08,19.98,18.79,20.62,20.54,20.40,19.46,20.46,19.63,20.82,20.08,19.42,18.66,20.40,20.37,19.90,19.85,19.90,19.97,19.65,20.03,19.83,18.81,19.74,18.57,20.29,19.19,18.77,19.42,19.92,19.50,19.72,19.26,20.40,19.33,
00:48:21,20.09,18.77,20.57,20.47,20.27,19.36,20.35,19.54,20.68,19.97,19.29,18.55,20.29,20.31,19.81,19.82,19.79,19.92,19.61,19.99,19.72,18.76,19.63,18.49,20.17,19.10,18.79,19.41,19.93,19.57,19.74,19.33,20.49,19.43,
00:48:35,20.13,18.76,20.53,20.42,20.15,19.31,20.25,19.47,20.55,19.88,19.26,18.56,20.22,20.23,19.82,19.81,19.81,19.87,19.61,19.97,19.63,18.77,19.57,18.53,20.08,19.08,18.97,19.49,20.01,19.71,19.78,19.43,20.55,19.53,
00:48:49,20.17,18.91,20.54,20.39,20.06,19.29,20.19,19.47,20.45,19.83,19.19,18.57,20.12,20.17,19.75,19.77,19.74,19.85,19.49,19.89,19.51,18.67,19.42,18.42,19.96,18.99,18.84,19.40,19.88,19.54,19.64,19.26,20.39,19.39,
00:49:03,19.97,18.62,20.40,20.28,19.92,19.18,20.02,19.36,20.30,19.74,19.06,18.48,19.99,20.05,19.65,19.67,19.64,19.76,19.43,19.85,19.42,18.59,19.32,18.38,19.85,18.90,18.78,19.35,19.85,19.51,19.63,19.26,20.40,19.39,
00:49:17,19.98,18.65,20.35,20.23,19.83,19.13,19.96,19.30,20.20,19.66,19.04,18.45,19.96,20.03,19.65,19.69,19.64,19.72,19.45,19.83,19.37,18.62,19.31,18.41,19.79,18.90,18.96,19.50,19.98,19.78,19.78,19.50,20.61,19.67,
00:49:30,20.22,19.17,20.44,20.29,19.84,19.20,20.04,19.41,20.23,19.74,19.16,18.61,20.00,20.10,19.78,19.85,19.72,19.81,19.63,20.00,19.43,18.78,19.45,18.62,19.84,18.99,19.49,20.01,20.30,20.26,20.02,19.83,20.91,20.00,
00:49:44,20.50,20.06,20.59,20.48,19.86,19.29,20.17,19.57,20.36,19.94,19.30,18.79,20.04,20.17,19.88,19.97,19.76,19.91,19.73,20.12,19.47,18.89,19.55,18.74,19.86,19.08,19.86,20.35,20.42,20.56,20.16,20.08,21.09,20.31,
00:49:58,20.59,20.58,20.76,20.69,19.89,19.39,20.29,19.74,20.53,20.16,19.37,18.94,20.05,20.25,19.96,20.09,19.80,19.99,19.79,20.21,19.51,19.01,19.59,18.86,19.90,19.16,20.02,20.39,20.46,20.61,20.20,20.15,21.11,20.44,
00:50:11,20.58,20.50,20.83,20.74,19.91,19.48,20.29,19.81,20.55,20.23,19.39,18.96,20.05,20.25,19.93,20.05,19.78,20.02,19.69,20.18,19.39,19.00,19.43,18.75,19.84,19.16,19.64,19.91,20.30,20.38,20.06,19.98,20.89,20.22,
00:50:26,20.39,19.78,20.76,20.66,19.85,19.48,20.18,19.76,20.47,20.19,19.30,18.87,20.01,20.23,19.83,20.00,19.72,19.97,19.62,20.15,19.33,18.97,19.29,18.67,19.74,19.10,19.36,19.46,20.08,20.05,19.84,19.69,20.50,19.80,
00:50:39,20.14,19.19,20.66,20.60,19.81,19.47,20.10,19.73,20.39,20.14,19.23,18.88,19.95,20.19,19.73,19.88,19.67,19.90,19.52,20.07,19.24,18.91,19.17,18.57,19.67,19.04,19.09,19.13,19.94,19.84,19.73,19.51,20.28,19.53,
00:50:53,19.95,18.80,20.61,20.51,19.75,19.45,20.03,19.68,20.32,20.09,19.16,18.81,19.92,20.11,19.68,19.81,19.63,19.81,19.49,20.01,19.21,18.92,19.13,18.55,19.60,19.02,19.12,19.26,19.99,19.91,19.79,19.61,20.48,19.66,
00:51:07,20.13,18.83,20.56,20.46,19.72,19.45,19.98,19.66,20.25,20.04,19.14,18.80,19.87,20.09,19.64,19.78,19.59,19.81,19.49,20.00,19.18,18.89,19.09,18.53,19.57,18.99,19.15,19.31,20.00,19.93,19.80,19.62,20.49,19.69,
00:51:20,20.11,18.69,20.52,20.40,19.68,19.42,19.92,19.61,20.19,19.99,19.08,18.73,19.83,20.02,19.62,19.72,19.56,19.74,19.42,19.95,19.10,18.84,19.01,18.49,19.50,18.92,18.94,19.10,19.95,19.84,19.73,19.47,20.33,19.54,
00:51:35,19.87,18.46,20.46,20.34,19.64,19.38,19.87,19.57,20.13,19.94,19.03,18.69,19.81,19.99,19.56,19.64,19.49,19.67,19.38,19.93,19.06,18.82,18.96,18.46,19.46,18.89,18.93,19.15,19.92,19.82,19.71,19.50,20.35,19.57,
00:51:48,19.97,18.50,20.40,20.27,19.60,19.35,19.81,19.54,20.06,19.89,19.01,18.69,19.75,19.93,19.49,19.59,19.41,19.60,19.31,19.84,19.01,18.74,18.87,18.35,19.39,18.85,18.92,19.08,19.69,19.55,19.54,19.31,20.21,19.40,
00:52:02,19.88,18.42,20.35,20.22,19.57,19.35,19.79,19.51,20.01,19.84,18.99,18.70,19.72,19.87,19.48,19.54,19.44,19.58,19.29,19.79,18.96,18.72,18.83,18.34,19.35,18.81,18.95,19.16,19.79,19.63,19.56,19.36,20.24,19.42,
00:52:16,19.98,18.53,20.33,20.19,19.55,19.34,19.76,19.49,19.96,19.81,19.02,18.69,19.70,19.83,19.49,19.56,19.37,19.54,19.28,19.75,18.94,18.70,18.79,18.29,19.29,18.82,18.96,19.17,19.80,19.67,19.58,19.38,20.29,19.45,
00:52:29,19.97,18.60,20.33,20.17,19.53,19.32,19.73,19.47,19.91,19.77,19.00,18.74,19.68,19.82,19.47,19.52,19.36,19.54,19.27,19.75,18.92,18.68,18.76,18.26,19.27,18.78,19.02,19.27,19.85,19.73,19.61,19.41,20.30,19.49,
00:52:43,19.97,18.67,20.32,20.17,19.51,19.32,19.72,19.46,19.88,19.73,18.99,18.73,19.64,19.81,19.49,19.53,19.37,19.56,19.26,19.69,18.90,18.67,18.74,18.26,19.24,18.77,19.03,19.33,19.84,19.72,19.60,19.40,20.33,19.49,
00:52:57,20.02,18.80,20.34,20.17,19.51,19.32,19.73,19.48,19.86,19.71,19.02,18.75,19.64,19.82,19.52,19.57,19.37,19.56,19.25,19.70,18.87,18.65,18.72,18.28,19.24,18.75,19.03,19.38,19.83,19.75,19.60,19.43,20.36,19.56,
00:53:11,20.06,18.91,20.35,20.16,19.50,19.32,19.71,19.48,19.80,19.69,19.01,18.78,19.63,19.79,19.50,19.57,19.42,19.60,19.24,19.70,18.84,18.63,18.74,18.29,19.21,18.77,19.08,19.40,19.87,19.83,19.60,19.45,20.40,19.62,
00:53:25,20.09,19.01,20.34,20.14,19.49,19.32,19.70,19.48,19.76,19.67,19.02,18.79,19.63,19.78,19.47,19.57,19.38,19.58,19.25,19.68,18.85,18.66,18.75,18.33,19.20,18.78,19.11,19.46,19.91,19.88,19.65,19.53,20.43,19.66,
00:53:38,20.10,19.11,20.33,20.12,19.47,19.33,19.67,19.48,19.72,19.66,19.04,18.81,19.60,19.77,19.48,19.61,19.36,19.59,19.26,19.71,18.86,18.67,18.75,18.38,19.21,18.78,19.19,19.52,19.92,19.90,19.70,19.58,20.50,19.74,
00:53:52,20.09,19.15,20.31,20.10,19.46,19.34,19.65,19.49,19.67,19.64,19.06,18.85,19.56,19.74,19.47,19.59,19.36,19.62,19.25,19.69,18.85,18.71,18.76,18.38,19.19,18.81,19.19,19.53,19.95,19.94,19.69,19.58,20.50,19.77,
00:54:06,20.09,19.19,20.29,20.07,19.44,19.34,19.62,19.49,19.62,19.62,19.02,18.87,19.57,19.74,19.47,19.59,19.37,19.58,19.28,19.70,18.90,18.76,18.80,18.47,19.24,18.86,19.32,19.59,19.96,20.00,19.80,19.68,20.58,19.93,
00:54:20,20.07,19.28,20.20,19.97,19.45,19.38,19.61,19.53,19.62,19.64,19.03,18.92,19.50,19.66,19.43,19.45,19.32,19.51,19.26,19.65,18.85,18.74,18.73,18.46,19.21,18.87,19.25,19.44,19.91,19.91,19.71,19.60,20.38,19.78,
00:54:34,19.95,18.93,20.08,19.82,19.37,19.34,19.51,19.45,19.59,19.63,18.97,18.90,19.47,19.54,19.35,19.30,19.24,19.37,19.21,19.59,18.76,18.69,18.68,18.43,19.19,18.89,19.03,19.14,19.76,19.78,19.54,19.46,20.03,19.57,
00:54:47,19.78,18.73,19.95,19.74,19.28,19.30,19.43,19.39,19.49,19.57,18.90,18.89,19.38,19.51,19.23,19.24,19.16,19.31,19.12,19.54,18.75,18.70,18.62,18.41,19.16,18.91,18.96,19.09,19.60,19.53,19.36,19.22,19.95,19.40,